Regional Weather Roundup
Issued by NWS

Home | Current Version | Previous Version | Graphics & Text | Print | Product List | Glossary On
Versions: 1 2 3 4 5 6 7 8 9 10 11 12 13 14 15 16 17 18 19 20 21 22 23 24 25 26 27 28 29 30 31 32 33 34 35 36 37 38 39 40 41 42 43 44 45 46 47 48 49 50
755
ASUS45 KTFX 282310
RWRMT
MONTANA REGIONAL WEATHER ROUNDUP
NATIONAL WEATHER SERVICE GREAT FALLS MT
500 PM MDT TUE MAR 28 2017

NOTE: "FAIR" INDICATES FEW OR NO CLOUDS BELOW 12000 FEET WITH NO
SIGNIFICANT WEATHER AND/OR OBSTRUCTIONS TO VISIBILITY.

MTZ001>007-043-290000-
WEST OF THE DIVIDE

CITY           SKY/WX    TMP DP  RH WIND       PRES   REMARKS
KALISPELL      CLOUDY    47  30  51 S12       30.14F
MISSOULA       CLOUDY    49  27  42 CALM      30.18F
BUTTE          SUNNY     48  17  29 W8        30.11F
MULLAN PASS    LGT SNOW  29  28  96 VRB6      30.14S VSB 3/4 WCI  23
ANACONDA         N/A     50  16  25 W14G20    30.11S
DEER LODGE       N/A     46  21  36 NW12G18   30.15S
EUREKA           N/A     46  30  53 S10       30.14R
HAMILTON         N/A     48  23  37 W9        30.18F
PLAINS           N/A     50  31  48 W9        30.18F
RONAN            N/A     47  29  50 SE3       30.20F
$$

MTZ008-052>055-290000-
SOUTHWEST MONTANA

CITY           SKY/WX    TMP DP  RH WIND       PRES   REMARKS
BOZEMAN        SUNNY     51  21  30 W7        30.10F
DILLON         SUNNY     51  17  26 S10       30.10S
W YELLOWSTONE  CLOUDY    39  16  38 SW15G21   30.14R WCI  31
ENNIS          SUNNY     48  19  32 CALM      30.15F
$$

MTZ009-010-012-014-046-048-049-054-290000-
EAST SLOPES AND CENTRAL MONTANA

CITY           SKY/WX    TMP DP  RH WIND       PRES   REMARKS
CUT BANK       PTSUNNY   45  24  43 SW30G39   30.01S
GREAT FALLS    CLOUDY    52  21  29 SW21G26   30.04F
MALMSTROM AFB  CLOUDY    52  21  29 W17G25    30.05F
HELENA         SUNNY     55  21  26 W15G23    30.08F
AUGUSTA          N/A     45  20  37 W29       30.05R
BOWMANS CRNR     N/A     46  21  37 SW16      30.04S
CHOTEAU          N/A     48  21  34 W21       30.05R
CONRAD           N/A     52  32  46 W16       30.04S
FAIRFIELD        N/A     51  19  28 W20       30.04R
POWER            N/A     52  20  28 W18G25    30.02F
RAYNESFORD       N/A     52  20  28 W15G25    30.04F
$$

MTZ011-013-016-021-045-047-050-051-290000-
NORTH CENTRAL MONTANA

CITY           SKY/WX    TMP DP  RH WIND       PRES   REMARKS
HAVRE          CLOUDY    57  21  24 SW16G23   29.99F
LEWISTOWN      CLOUDY    50  18  28 W10       30.05F
N BAR RANCH      N/A     50  21  32 N9        30.07S
CHINOOK          N/A     57  21  24 SW15G22   30.00F
DENTON           N/A     51  20  30 W14       30.02F
FORT BENTON      N/A     55  19  24 MISG      30.04F
GEYSER         PTSUNNY   49  19  30 W17G23    30.04F
GRASS RANGE      N/A     53  20  27 W10       30.01F
JUDITH GAP       N/A     49  20  32 W16       30.05F
STANFORD         N/A     49  19  30 W6        30.05F
WINIFRED         N/A     50  20  30 W12       30.04F
$$

MTZ017>020-022>027-061-062-290000-
NORTHEAST MONTANA

CITY           SKY/WX    TMP DP  RH WIND       PRES   REMARKS
GLASGOW        PTSUNNY   58  26  29 SW12      30.03S
JORDAN           N/A     57  26  30 VRB5      30.04F
SIDNEY         LGT RAIN  45  43  93 NW14      30.08F FOG
WOLF POINT     SUNNY     54  38  54 VRB3      30.06F
MALTA          PTSUNNY   59  23  25 SW6       30.01S
PLENTYWOOD       N/A     48  39  71 S5        30.07S
POPLAR           N/A     50  39  66 S7        30.08S
SCOBEY           N/A     52  35  52 SE2       30.02S
$$

MTZ028>42-056>058-290000-
SOUTHCENTRAL AND SOUTHEAST MONTANA

CITY           SKY/WX    TMP DP  RH WIND       PRES   REMARKS
BAKER          PTSUNNY   55  38  52 N18       30.05R
BILLINGS       MOSUNNY   55  22  27 VRB5      30.07S
LIVINGSTON     SUNNY     51  21  30 W18       30.07F
MILES CITY     CLOUDY    53  36  52 CALM      30.08S
BIG TIMBER     SUNNY     50  19  29 W21G29    30.09F
EKALAKA          N/A     52  37  56 NW8       30.02S
FORSYTH          N/A     54  32  43 W5        30.08S
HARLOWTON        N/A     51  19  27 W18G29    30.06F
LAUREL           N/A     55  25  31 SE2       30.05F
ROUNDUP          N/A     57  17  21 S15       29.96F
$$

REGIONAL REPORTS...DAKOTAS

CITY           SKY/WX    TMP DP  RH WIND       PRES   REMARKS
WILLISTON      CLOUDY    51  41  68 W16G22    30.08R HAZE
MINOT          MOSUNNY   54  43  66 E13       30.07F
DICKINSON      PTSUNNY   59  30  33 S10       30.01S
BEACH          PTSUNNY   52  41  66 N17       30.09R
TIOGA          CLOUDY    54  41  62 S9        30.06S
WATFORD CITY   PTSUNNY   48  45  87 NW16G22   30.05R
BISMARCK       MOSUNNY   61  36  39 SE10      30.08S
GRAND FORKS    PTSUNNY   54  44  69 NE8       30.16F
FARGO          SUNNY     58  41  53 NE7       30.14S
BUFFALO SD       N/A     51  38  60 SE9G16    29.99R
RAPID CITY     CLOUDY    45  42  89 VRB3      30.06R
$$

REGIONAL REPORTS...WYOMING/IDAHO/WASHINGTON

CITY           SKY/WX    TMP DP  RH WIND       PRES   REMARKS
GILLETTE       CLOUDY    48  37  65 N14       30.05R
SHERIDAN       CLOUDY    46  37  71 N8        30.11S
BUFFALO WY     MOSUNNY   45  33  63 N14G25    30.09S
CODY           PTSUNNY   48  29  47 N3        30.08S
YELLOWSTONE LA   N/A     40  14  34 VRB6      30.14S
IDAHO FALLS    PTSUNNY   50  31  48 SW10      30.17S
SALMON         MOSUNNY   54  21  28 NW8       30.12F
BOISE          PTSUNNY   54  30  40 N12       30.25F
SPOKANE        LGT RAIN  45  38  76 SW14      30.20S FOG
$$

REGIONAL REPORTS...ALBERTA

CITY           SKY/WX    TMP DP  RH WIND       PRES   REMARKS
EDMONTON       PTSUNNY   46  39  76 NE6       29.83S
CALGARY        CLOUDY    54  19  26 SE8       29.83F
LETHBRIDGE     CLOUDY    52  23  32 SW22G30   29.92F
MEDICINE HAT   CLOUDY    55  25  30 SW23G32   29.91S
WATERTON GATE    N/A     45  23  42 SW25G36     N/A
CARDSTON         N/A     46  25  42 SW12G18     N/A
MILK RIVER       N/A     52  23  32 W17         N/A
ONEFOUR          N/A     54  21  28 SW16G26     N/A
$$

REGIONAL REPORTS...SASKATCHEWAN

CITY           SKY/WX    TMP DP  RH WIND       PRES   REMARKS
SWIFT CURRENT  MOSUNNY   57  25  28 SW18      29.93F
REGINA         CLOUDY    39  36  87 SE17      30.06S WCI  30
SASKATOON      PTSUNNY   50  39  66 E13       29.98F
CYPRESS HILLS    N/A     50  18  27 SW15G23     N/A
VAL MARIE        N/A     57  21  24 W14G22      N/A
ROCKGLEN         N/A     55  25  30 W14G21      N/A
ASSINIBOIA       N/A     43  37  81 E6          N/A
$$




USA.gov is the U.S. government's official web portal to all federal, state and local government web resources and services.